Weather History for Dallas Love, TX

Change the Weather History Date:

Friday, May 24, 2013

  Actual Average Record
Temperature  
Mean Temperature 78 °F -  
Max Temperature 87 °F 85 °F 96 °F (2000)
Min Temperature 69 °F 66 °F 63 °F (1999)
Cooling Degree Days 12    
Growing Degree Days 28 (Base 50)    
Moisture  
Dew Point 68 °F    
Average Humidity 71    
Maximum Humidity 84    
Minimum Humidity 53    
Precipitation  
Precipitation 0.33 in - - ()
Sea Level Pressure  
Sea Level Pressure 30.08 in    
Wind  
Wind Speed 9 mph (SE)    
Max Wind Speed 16 mph    
Max Gust Speed 28 mph    
Visibility 8 miles    
Events Rain , Thunderstorm    
Averages and records for this station are not official NWS values.
T = Trace of Precipitation, MM = Missing Value Source: NWS Daily Summary

Daily Weather History Graph

Daily Weather History Graph

Search for Another Location

Airport:

Trip Planner

Search our weather history database for the weather conditions in past years. The results will help you decide how hot, cold, wet, or windy it might be!

Date:

Astronomy

May. 24, 2013 Rise Set
Actual Time 6:22 AM CDT 8:25 PM CDT
Civil Twilight 5:55 AM CDT 8:53 PM CDT
Nautical Twilight 5:21 AM CDT 9:27 PM CDT
Astronomical Twilight 4:45 AM CDT 10:03 PM CDT
Moon 8:10 PM CDT (5/24) 5:53 AM CDT (5/24)
Length of Visible Light 14h 58m
Length of Day
14h 03m
Full, 100% of the Moon is Illuminated
May 24
Full
May 24
Full
May 31
Last Quarter
Jun 8
New
Jun 16
First Quarter

Hourly Weather History & Observations

Time (CDT) Temp. Heat Index Dew Point Humidity Pressure Visibility Wind Dir Wind Speed Gust Speed Precip Events Conditions
12:53 AM 81.0 °F 84.1 °F 69.1 °F 67% 30.00 in 8.0 mi ESE 8.1 mph - N/A   Overcast
1:53 AM 79.0 °F - 68.0 °F 69% 29.99 in 8.0 mi SE 11.5 mph - N/A   Overcast
2:53 AM 79.0 °F - 68.0 °F 69% 30.01 in 8.0 mi East 4.6 mph - N/A   Overcast
3:53 AM 78.1 °F - 68.0 °F 71% 30.01 in 8.0 mi ESE 6.9 mph - N/A   Overcast
4:53 AM 77.0 °F - 69.1 °F 76% 30.02 in 8.0 mi ESE 8.1 mph - N/A   Overcast
5:53 AM 75.9 °F - 69.1 °F 79% 30.02 in 8.0 mi ESE 4.6 mph - N/A   Overcast
6:31 AM 77.0 °F - 69.8 °F 78% 30.06 in 8.0 mi East 6.9 mph - N/A   Mostly Cloudy
6:53 AM 77.0 °F - 70.0 °F 79% 30.04 in 7.0 mi East 8.1 mph - N/A   Mostly Cloudy
7:53 AM 77.0 °F - 70.0 °F 79% 30.09 in 6.0 mi East 8.1 mph - N/A   Haze
8:45 AM 78.8 °F - 71.6 °F 78% 30.12 in 7.0 mi ESE 9.2 mph - N/A   Mostly Cloudy
8:53 AM 79.0 °F - 71.1 °F 77% 30.10 in 6.0 mi ESE 8.1 mph - N/A   Haze
9:53 AM 81.0 °F 84.9 °F 71.1 °F 72% 30.11 in 6.0 mi SE 5.8 mph - N/A   Haze
10:09 AM 80.6 °F 84.6 °F 71.6 °F 74% 30.12 in 6.0 mi ESE 6.9 mph - N/A   Haze
10:53 AM 82.0 °F 86.3 °F 71.1 °F 69% 30.12 in 7.0 mi ESE 9.2 mph - N/A   Overcast
11:38 AM 82.4 °F 87.2 °F 71.6 °F 70% 30.14 in 8.0 mi SE 9.2 mph - N/A   Overcast
11:53 AM 84.0 °F 88.4 °F 70.0 °F 63% 30.12 in 8.0 mi SE 12.7 mph 19.6 mph N/A   Mostly Cloudy
12:53 PM 84.9 °F 88.8 °F 69.1 °F 59% 30.12 in 10.0 mi SSE 10.4 mph - N/A   Overcast
1:30 PM 82.4 °F 86.3 °F 69.8 °F 66% 30.13 in 9.0 mi East 10.4 mph - 0.00 in Rain , Thunderstorm Light Thunderstorms and Rain
1:53 PM 84.0 °F 87.8 °F 69.1 °F 61% 30.10 in 9.0 mi SE 9.2 mph - 0.00 in Thunderstorm Thunderstorm
2:25 PM 84.2 °F 88.4 °F 69.8 °F 62% 30.11 in 10.0 mi SE 13.8 mph - N/A   Overcast
2:53 PM 86.0 °F 88.8 °F 66.9 °F 53% 30.07 in 9.0 mi SE 16.1 mph - N/A   Overcast
3:53 PM 86.0 °F 90.1 °F 69.1 °F 57% 30.04 in 7.0 mi ESE 13.8 mph - N/A   Overcast
4:53 PM 84.9 °F 88.2 °F 68.0 °F 57% 30.04 in 10.0 mi ESE 9.2 mph - N/A   Overcast
5:53 PM 84.0 °F 87.8 °F 69.1 °F 61% 30.04 in 10.0 mi SE 13.8 mph - N/A   Overcast
6:53 PM 82.9 °F 87.5 °F 71.1 °F 67% 30.05 in 10.0 mi SE 6.9 mph - N/A   Overcast
7:53 PM 82.0 °F 85.9 °F 70.0 °F 67% 30.06 in 10.0 mi SE 12.7 mph - N/A   Overcast
8:21 PM 73.4 °F - 62.6 °F 69% 30.12 in 10.0 mi WSW 11.5 mph 27.6 mph N/A   Overcast
8:53 PM 71.1 °F - 64.9 °F 81% 30.10 in 5.0 mi SW 4.6 mph - 0.06 in Rain Rain
9:00 PM 71.6 °F - 64.4 °F 78% 30.12 in 5.0 mi SW 8.1 mph - 0.03 in Rain Rain
9:12 PM 69.8 °F - 64.4 °F 83% 30.12 in 2.0 mi SW 6.9 mph - 0.16 in Rain Rain
9:25 PM 69.8 °F - 64.4 °F 83% 30.11 in 7.0 mi WSW 4.6 mph - 0.18 in Rain Light Rain
9:53 PM 71.1 °F - 66.0 °F 84% 30.12 in 10.0 mi Variable 3.5 mph - 0.19 in Rain Light Rain
10:53 PM 71.1 °F - 66.0 °F 84% 30.18 in 5.0 mi South 11.5 mph 24.2 mph 0.05 in Rain Heavy Rain
11:53 PM 71.1 °F - 64.9 °F 81% 30.17 in 10.0 mi SW 4.6 mph - 0.03 in Rain Light Rain